Location: Miles
(41.4492°N, 81.6087°W)
Time: 08:21:23
(UTC+00:00)

Vanguard 1 Rocket - Pass Details

Date: 15 September 2024
Orbit: 650 x 4218 km, 34.3° (Epoch: 05 October)

Event Time Altitude Azimuth Distance (km) Brightness Sun altitude
Rises 10:10:17 0° 250° (WSW) 5,775 - -11.4°
Reaches altitude 10° 10:13:23 10° 247° (WSW) 5,136 - -10.8°
Exits shadow 10:13:46 11° 247° (WSW) 5,063 10.5 -10.7°
Maximum altitude 10:30:12 69° 169° (S) 3,804 10.5 -7.7°
Drops below altitude 10° 10:56:04 10° 93° (E) 7,391 13.9 -2.9°
Sets 11:01:42 0° 92° (E) 8,296 15.0 -1.9°
